Time,TemperatureF,DewpointF,PressureIn,WindDirection,WindDirectionDegrees,WindSpeedMPH,WindSpeedGustMPH,Humidity,HourlyPrecipIn,Conditions,Clouds,dailyrainin,SoftwareType,DateUTC
2013-11-13 00:01:00,23.7,19.0,30.66,WSW,238,3.0,5.0,82,0.00,,,0.00,Wunderground v.1.15,2013-11-13 05:01:00,
2013-11-13 00:02:00,23.7,19.0,30.66,West,273,4.0,5.0,82,0.00,,,0.00,Wunderground v.1.15,2013-11-13 05:02:00,
2013-11-13 00:04:00,23.7,19.0,30.66,SW,232,4.0,5.0,82,0.00,,,0.00,Wunderground v.1.15,2013-11-13 05:04:00,
2013-11-13 00:06:00,23.7,19.0,30.66,WSW,248,4.0,5.0,82,0.00,,,0.00,Wunderground v.1.15,2013-11-13 05:06:00,
2013-11-13 00:11:00,23.5,18.8,30.66,SSW,208,4.0,5.0,82,0.00,,,0.00,Wunderground v.1.15,2013-11-13 05:11:00,
2013-11-13 00:15:00,23.5,18.8,30.66,South,181,3.0,5.0,82,0.00,,,0.00,Wunderground v.1.15,2013-11-13 05:15:00,
2013-11-13 00:21:00,23.4,19.0,30.66,SSW,204,3.0,5.0,83,0.00,,,0.00,Wunderground v.1.15,2013-11-13 05:21:00,
2013-11-13 00:27:00,23.4,19.0,30.66,West,273,3.0,5.0,83,0.00,,,0.00,Wunderground v.1.15,2013-11-13 05:27:00,
2013-11-13 00:33:00,23.4,19.0,30.66,WSW,250,3.0,5.0,83,0.00,,,0.00,Wunderground v.1.15,2013-11-13 05:33:00,
2013-11-13 00:39:00,23.4,18.7,30.66,SSW,208,4.0,5.0,82,0.00,,,0.00,Wunderground v.1.15,2013-11-13 05:39:00,
2013-11-13 00:44:00,23.4,18.7,30.67,SW,221,3.0,5.0,82,0.00,,,0.00,Wunderground v.1.15,2013-11-13 05:44:00,
2013-11-13 00:50:00,23.3,18.6,30.67,WSW,253,3.0,3.0,82,0.00,,,0.00,Wunderground v.1.15,2013-11-13 05:50:00,
2013-11-13 00:56:00,23.2,18.5,30.67,WSW,256,3.0,5.0,82,0.00,,,0.00,Wunderground v.1.15,2013-11-13 05:56:00,
2013-11-13 01:02:00,23.1,18.7,30.67,WSW,245,3.0,5.0,83,0.00,,,0.00,Wunderground v.1.15,2013-11-13 06:02:00,
2013-11-13 01:08:00,23.0,18.6,30.67,WSW,240,4.0,6.0,83,0.00,,,0.00,Wunderground v.1.15,2013-11-13 06:08:00,
2013-11-13 01:14:00,22.9,18.5,30.67,SW,226,4.0,6.0,83,0.00,,,0.00,Wunderground v.1.15,2013-11-13 06:14:00,
2013-11-13 01:20:00,22.9,18.5,30.67,West,259,4.0,4.0,83,0.00,,,0.00,Wunderground v.1.15,2013-11-13 06:20:00,
2013-11-13 01:26:00,22.8,18.4,30.67,South,190,4.0,7.0,83,0.00,,,0.00,Wunderground v.1.15,2013-11-13 06:26:00,
2013-11-13 01:32:00,22.7,18.3,30.67,WNW,287,4.0,5.0,83,0.00,,,0.00,Wunderground v.1.15,2013-11-13 06:32:00,
2013-11-13 01:37:00,22.6,18.2,30.67,ESE,117,4.0,7.0,83,0.00,,,0.00,Wunderground v.1.15,2013-11-13 06:37:00,
2013-11-13 01:42:00,22.6,18.2,30.67,WSW,239,3.0,6.0,83,0.00,,,0.00,Wunderground v.1.15,2013-11-13 06:42:00,
2013-11-13 01:48:00,22.6,18.2,30.67,SW,233,3.0,6.0,83,0.00,,,0.00,Wunderground v.1.15,2013-11-13 06:48:00,
2013-11-13 01:54:00,22.6,18.2,30.67,SW,230,4.0,5.0,83,0.00,,,0.00,Wunderground v.1.15,2013-11-13 06:54:00,
2013-11-13 02:00:00,22.5,18.1,30.67,West,281,4.0,5.0,83,0.00,,,0.00,Wunderground v.1.15,2013-11-13 07:00:00,
2013-11-13 02:06:00,22.4,18.0,30.67,WSW,254,4.0,7.0,83,0.00,,,0.00,Wunderground v.1.15,2013-11-13 07:06:00,
2013-11-13 02:12:00,22.3,18.2,30.67,SW,231,3.0,5.0,84,0.00,,,0.00,Wunderground v.1.15,2013-11-13 07:12:00,
2013-11-13 02:18:00,22.2,18.1,30.67,SW,235,4.0,5.0,84,0.00,,,0.00,Wunderground v.1.15,2013-11-13 07:18:00,
2013-11-13 02:24:00,22.0,17.9,30.67,WSW,240,4.0,5.0,84,0.00,,,0.00,Wunderground v.1.15,2013-11-13 07:24:00,
2013-11-13 02:30:00,21.8,18.0,30.67,SW,224,3.0,5.0,85,0.00,,,0.00,Wunderground v.1.15,2013-11-13 07:30:00,
2013-11-13 02:36:00,21.6,17.8,30.66,SW,226,3.0,5.0,85,0.00,,,0.00,Wunderground v.1.15,2013-11-13 07:36:00,
2013-11-13 02:42:00,21.4,17.9,30.66,SW,215,3.0,5.0,86,0.00,,,0.00,Wunderground v.1.15,2013-11-13 07:42:00,
2013-11-13 02:47:00,21.2,17.7,30.66,SW,215,3.0,5.0,86,0.00,,,0.00,Wunderground v.1.15,2013-11-13 07:47:00,
2013-11-13 02:53:00,21.0,17.5,30.66,SW,224,3.0,5.0,86,0.00,,,0.00,Wunderground v.1.15,2013-11-13 07:53:00,
2013-11-13 02:59:00,21.1,17.8,30.66,SW,235,3.0,6.0,87,0.00,,,0.00,Wunderground v.1.15,2013-11-13 07:59:00,
2013-11-13 03:05:00,21.1,17.6,30.66,SW,229,3.0,5.0,86,0.00,,,0.00,Wunderground v.1.15,2013-11-13 08:05:00,
2013-11-13 03:11:00,21.1,17.6,30.66,SW,215,3.0,5.0,86,0.00,,,0.00,Wunderground v.1.15,2013-11-13 08:11:00,
2013-11-13 03:17:00,21.0,17.5,30.66,SW,231,3.0,5.0,86,0.00,,,0.00,Wunderground v.1.15,2013-11-13 08:17:00,
2013-11-13 03:23:00,20.8,17.3,30.66,SW,224,3.0,5.0,86,0.00,,,0.00,Wunderground v.1.15,2013-11-13 08:23:00,
2013-11-13 03:29:00,20.7,17.4,30.66,SW,226,3.0,5.0,87,0.00,,,0.00,Wunderground v.1.15,2013-11-13 08:29:00,
2013-11-13 03:34:00,20.7,17.7,30.66,SW,227,4.0,6.0,88,0.00,,,0.00,Wunderground v.1.15,2013-11-13 08:34:00,
2013-11-13 03:40:00,20.7,17.7,30.66,WSW,245,4.0,5.0,88,0.00,,,0.00,Wunderground v.1.15,2013-11-13 08:40:00,
2013-11-13 03:46:00,20.7,17.7,30.66,WSW,246,4.0,6.0,88,0.00,,,0.00,Wunderground v.1.15,2013-11-13 08:46:00,
2013-11-13 03:52:00,20.7,17.7,30.66,WSW,237,4.0,5.0,88,0.00,,,0.00,Wunderground v.1.15,2013-11-13 08:52:00,
2013-11-13 03:58:00,20.8,17.8,30.66,SW,231,4.0,6.0,88,0.00,,,0.00,Wunderground v.1.15,2013-11-13 08:58:00,
2013-11-13 04:05:00,20.8,17.8,30.66,SW,235,4.0,6.0,88,0.00,,,0.00,Wunderground v.1.15,2013-11-13 09:05:00,
2013-11-13 04:10:00,20.6,17.6,30.66,West,262,4.0,5.0,88,0.00,,,0.00,Wunderground v.1.15,2013-11-13 09:10:00,
2013-11-13 04:16:00,20.6,17.6,30.66,SW,228,4.0,5.0,88,0.00,,,0.00,Wunderground v.1.15,2013-11-13 09:16:00,
2013-11-13 04:21:00,20.5,17.8,30.66,SW,226,4.0,5.0,89,0.00,,,0.00,Wunderground v.1.15,2013-11-13 09:21:00,
2013-11-13 04:27:00,20.3,17.6,30.66,WSW,239,4.0,5.0,89,0.00,,,0.00,Wunderground v.1.15,2013-11-13 09:27:00,
2013-11-13 04:33:00,20.2,17.5,30.66,SSW,209,4.0,5.0,89,0.00,,,0.00,Wunderground v.1.15,2013-11-13 09:33:00,
2013-11-13 04:39:00,20.2,17.5,30.66,WSW,238,4.0,7.0,89,0.00,,,0.00,Wunderground v.1.15,2013-11-13 09:39:00,
2013-11-13 04:45:00,20.1,17.4,30.66,WSW,238,3.0,5.0,89,0.00,,,0.00,Wunderground v.1.15,2013-11-13 09:45:00,
2013-11-13 04:51:00,20.0,17.5,30.67,West,272,2.0,5.0,90,0.00,,,0.00,Wunderground v.1.15,2013-11-13 09:51:00,
2013-11-13 04:57:00,20.0,17.5,30.67,SW,226,3.0,5.0,90,0.00,,,0.00,Wunderground v.1.15,2013-11-13 09:57:00,
2013-11-13 05:03:00,20.0,17.5,30.67,WSW,238,3.0,5.0,90,0.00,,,0.00,Wunderground v.1.15,2013-11-13 10:03:00,
2013-11-13 05:09:00,19.9,17.2,30.67,SW,231,3.0,5.0,89,0.00,,,0.00,Wunderground v.1.15,2013-11-13 10:09:00,
2013-11-13 05:14:00,19.8,17.1,30.67,WSW,238,3.0,5.0,89,0.00,,,0.00,Wunderground v.1.15,2013-11-13 10:14:00,
2013-11-13 05:20:00,19.7,17.2,30.67,WSW,245,3.0,5.0,90,0.00,,,0.00,Wunderground v.1.15,2013-11-13 10:20:00,
2013-11-13 05:26:00,19.8,17.3,30.66,SW,226,4.0,5.0,90,0.00,,,0.00,Wunderground v.1.15,2013-11-13 10:26:00,
2013-11-13 05:32:00,19.8,17.3,30.66,SW,235,3.0,5.0,90,0.00,,,0.00,Wunderground v.1.15,2013-11-13 10:32:00,
2013-11-13 05:38:00,19.8,17.3,30.66,SW,229,3.0,5.0,90,0.00,,,0.00,Wunderground v.1.15,2013-11-13 10:38:00,
2013-11-13 05:44:00,19.7,17.2,30.66,SSW,203,4.0,5.0,90,0.00,,,0.00,Wunderground v.1.15,2013-11-13 10:44:00,
2013-11-13 05:50:00,19.6,16.9,30.66,SW,230,5.0,5.0,89,0.00,,,0.00,Wunderground v.1.15,2013-11-13 10:50:00,
2013-11-13 05:55:00,19.5,16.8,30.66,WSW,242,4.0,5.0,89,0.00,,,0.00,Wunderground v.1.15,2013-11-13 10:55:00,
2013-11-13 06:00:00,19.4,16.7,30.65,SW,224,4.0,4.0,89,0.00,,,0.00,Wunderground v.1.15,2013-11-13 11:00:00,
2013-11-13 06:06:00,19.3,16.8,30.65,SW,224,3.0,5.0,90,0.00,,,0.00,Wunderground v.1.15,2013-11-13 11:06:00,
2013-11-13 06:12:00,19.1,16.7,30.65,SSW,211,3.0,5.0,90,0.00,,,0.00,Wunderground v.1.15,2013-11-13 11:12:00,
2013-11-13 06:18:00,19.0,16.6,30.65,SW,218,3.0,5.0,90,0.00,,,0.00,Wunderground v.1.15,2013-11-13 11:18:00,
2013-11-13 06:23:00,19.0,16.6,30.65,SW,235,3.0,5.0,90,0.00,,,0.00,Wunderground v.1.15,2013-11-13 11:23:00,
2013-11-13 06:29:00,18.9,16.5,30.65,WSW,245,3.0,5.0,90,0.00,,,0.00,Wunderground v.1.15,2013-11-13 11:29:00,
2013-11-13 06:35:00,18.9,16.5,30.66,SW,218,3.0,5.0,90,0.00,,,0.00,Wunderground v.1.15,2013-11-13 11:35:00,
2013-11-13 06:41:00,18.9,16.5,30.66,SW,226,3.0,5.0,90,0.00,,,0.00,Wunderground v.1.15,2013-11-13 11:41:00,
2013-11-13 06:47:00,18.8,16.4,30.66,SW,219,2.0,5.0,90,0.00,,,0.00,Wunderground v.1.15,2013-11-13 11:47:00,
2013-11-13 06:53:00,18.7,16.3,30.66,SW,225,2.0,5.0,90,0.00,,,0.00,Wunderground v.1.15,2013-11-13 11:53:00,
2013-11-13 06:59:00,18.7,16.3,30.66,SW,224,3.0,5.0,90,0.00,,,0.00,Wunderground v.1.15,2013-11-13 11:59:00,
2013-11-13 07:05:00,18.6,16.2,30.66,SSW,198,3.0,5.0,90,0.00,,,0.00,Wunderground v.1.15,2013-11-13 12:05:00,
2013-11-13 07:10:00,18.6,16.2,30.66,SW,229,3.0,5.0,90,0.00,,,0.00,Wunderground v.1.15,2013-11-13 12:10:00,
2013-11-13 07:16:00,18.6,16.2,30.66,SW,221,3.0,5.0,90,0.00,,,0.00,Wunderground v.1.15,2013-11-13 12:16:00,
2013-11-13 07:22:00,18.6,16.2,30.66,SW,215,3.0,5.0,90,0.00,,,0.00,Wunderground v.1.15,2013-11-13 12:22:00,
2013-11-13 07:28:00,18.5,16.1,30.65,South,191,3.0,5.0,90,0.00,,,0.00,Wunderground v.1.15,2013-11-13 12:28:00,
2013-11-13 07:34:00,18.6,16.2,30.66,SW,234,3.0,5.0,90,0.00,,,0.00,Wunderground v.1.15,2013-11-13 12:34:00,
2013-11-13 07:40:00,18.6,16.2,30.65,SW,224,3.0,6.0,90,0.00,,,0.00,Wunderground v.1.15,2013-11-13 12:40:00,
2013-11-13 07:45:00,18.7,16.3,30.66,SW,215,4.0,6.0,90,0.00,,,0.00,Wunderground v.1.15,2013-11-13 12:45:00,
2013-11-13 07:51:00,18.9,16.5,30.66,SSW,201,4.0,5.0,90,0.00,,,0.00,Wunderground v.1.15,2013-11-13 12:51:00,
2013-11-13 07:57:00,19.3,16.6,30.66,SW,224,4.0,5.0,89,0.00,,,0.00,Wunderground v.1.15,2013-11-13 12:57:00,
2013-11-13 08:03:00,19.6,16.9,30.66,SW,218,4.0,5.0,89,0.00,,,0.00,Wunderground v.1.15,2013-11-13 13:03:00,
2013-11-13 08:08:00,19.8,16.8,30.66,SSW,199,4.0,5.0,88,0.00,,,0.00,Wunderground v.1.15,2013-11-13 13:08:00,
2013-11-13 08:14:00,20.0,17.0,30.66,SW,217,4.0,5.0,88,0.00,,,0.00,Wunderground v.1.15,2013-11-13 13:14:00,
2013-11-13 08:20:00,20.3,17.3,30.66,SW,229,4.0,4.0,88,0.00,,,0.00,Wunderground v.1.15,2013-11-13 13:20:00,
2013-11-13 08:26:00,20.6,17.3,30.66,South,186,5.0,7.0,87,0.00,,,0.00,Wunderground v.1.15,2013-11-13 13:26:00,
2013-11-13 08:32:00,20.9,17.6,30.66,SW,222,5.0,7.0,87,0.00,,,0.00,Wunderground v.1.15,2013-11-13 13:32:00,
2013-11-13 08:38:00,21.2,17.7,30.67,WSW,245,6.0,8.0,86,0.00,,,0.00,Wunderground v.1.15,2013-11-13 13:38:00,
2013-11-13 08:44:00,21.5,18.0,30.66,SW,234,6.0,10.0,86,0.00,,,0.00,Wunderground v.1.15,2013-11-13 13:44:00,
2013-11-13 08:49:00,21.7,17.9,30.66,SW,222,6.0,10.0,85,0.00,,,0.00,Wunderground v.1.15,2013-11-13 13:49:00,
2013-11-13 08:55:00,22.1,18.3,30.66,WSW,249,6.0,10.0,85,0.00,,,0.00,Wunderground v.1.15,2013-11-13 13:55:00,
2013-11-13 09:00:00,22.4,18.3,30.66,SW,235,6.0,8.0,84,0.00,,,0.00,Wunderground v.1.15,2013-11-13 14:00:00,
2013-11-13 09:06:00,22.7,18.6,30.66,WSW,244,7.0,9.0,84,0.00,,,0.00,Wunderground v.1.15,2013-11-13 14:06:00,
2013-11-13 09:12:00,23.0,18.6,30.66,SW,236,7.0,9.0,83,0.00,,,0.00,Wunderground v.1.15,2013-11-13 14:12:00,
2013-11-13 09:18:00,23.4,18.7,30.66,SW,215,7.0,9.0,82,0.00,,,0.00,Wunderground v.1.15,2013-11-13 14:18:00,
2013-11-13 09:24:00,23.9,18.9,30.66,NW,311,6.0,11.0,81,0.00,,,0.00,Wunderground v.1.15,2013-11-13 14:24:00,
2013-11-13 09:29:00,24.2,19.2,30.66,SSW,205,6.0,11.0,81,0.00,,,0.00,Wunderground v.1.15,2013-11-13 14:29:00,
2013-11-13 09:35:00,24.4,19.1,30.66,WSW,238,5.0,11.0,80,0.00,,,0.00,Wunderground v.1.15,2013-11-13 14:35:00,
2013-11-13 09:41:00,24.5,18.6,30.66,SW,215,7.0,7.0,78,0.00,,,0.00,Wunderground v.1.15,2013-11-13 14:41:00,
2013-11-13 09:47:00,24.7,18.8,30.66,SW,226,7.0,12.0,78,0.00,,,0.00,Wunderground v.1.15,2013-11-13 14:47:00,
2013-11-13 09:53:00,25.1,18.9,30.65,WSW,250,7.0,11.0,77,0.00,,,0.00,Wunderground v.1.15,2013-11-13 14:53:00,
2013-11-13 09:59:00,25.2,18.7,30.65,SW,224,8.0,11.0,76,0.00,,,0.00,Wunderground v.1.15,2013-11-13 14:59:00,
2013-11-13 10:05:00,25.5,19.0,30.65,WSW,242,8.0,10.0,76,0.00,,,0.00,Wunderground v.1.15,2013-11-13 15:05:00,
2013-11-13 10:11:00,26.1,19.3,30.65,SW,226,7.0,11.0,75,0.00,,,0.00,Wunderground v.1.15,2013-11-13 15:11:00,
2013-11-13 10:17:00,26.4,19.9,30.65,WSW,246,7.0,11.0,76,0.00,,,0.00,Wunderground v.1.15,2013-11-13 15:17:00,
2013-11-13 10:22:00,26.7,19.5,30.65,SW,231,6.0,10.0,74,0.00,,,0.00,Wunderground v.1.15,2013-11-13 15:22:00,
2013-11-13 10:28:00,26.8,19.6,30.65,SE,131,7.0,10.0,74,0.00,,,0.00,Wunderground v.1.15,2013-11-13 15:28:00,
2013-11-13 10:34:00,26.8,19.0,30.65,SSW,201,9.0,13.0,72,0.00,,,0.00,Wunderground v.1.15,2013-11-13 15:34:00,
2013-11-13 10:40:00,27.1,19.6,30.65,SW,227,9.0,13.0,73,0.00,,,0.00,Wunderground v.1.15,2013-11-13 15:40:00,
2013-11-13 10:46:00,27.3,19.8,30.65,SE,138,9.0,13.0,73,0.00,,,0.00,Wunderground v.1.15,2013-11-13 15:46:00,
2013-11-13 10:52:00,27.5,19.0,30.65,West,260,9.0,11.0,70,0.00,,,0.00,Wunderground v.1.15,2013-11-13 15:52:00,
2013-11-13 10:58:00,27.7,19.5,30.65,SW,214,9.0,13.0,71,0.00,,,0.00,Wunderground v.1.15,2013-11-13 15:58:00,
2013-11-13 11:04:00,28.4,19.2,30.64,SSW,195,9.0,16.0,68,0.00,,,0.00,Wunderground v.1.15,2013-11-13 16:04:00,
2013-11-13 11:10:00,28.7,19.1,30.64,WSW,239,9.0,10.0,67,0.00,,,0.00,Wunderground v.1.15,2013-11-13 16:10:00,
2013-11-13 11:16:00,28.6,19.0,30.64,SSW,203,10.0,13.0,67,0.00,,,0.00,Wunderground v.1.15,2013-11-13 16:16:00,
2013-11-13 11:22:00,28.9,19.7,30.64,SSW,210,9.0,12.0,68,0.00,,,0.00,Wunderground v.1.15,2013-11-13 16:22:00,
2013-11-13 11:28:00,29.1,19.5,30.64,WSW,245,10.0,14.0,67,0.00,,,0.00,Wunderground v.1.15,2013-11-13 16:28:00,
2013-11-13 11:34:00,29.1,19.8,30.63,WSW,238,10.0,13.0,68,0.00,,,0.00,Wunderground v.1.15,2013-11-13 16:34:00,
2013-11-13 11:40:00,29.5,19.5,30.63,SW,219,10.0,10.0,66,0.00,,,0.00,Wunderground v.1.15,2013-11-13 16:40:00,
2013-11-13 11:46:00,29.5,19.2,30.63,SW,226,11.0,15.0,65,0.00,,,0.00,Wunderground v.1.15,2013-11-13 16:46:00,
2013-11-13 11:51:00,29.6,18.9,30.62,WSW,238,12.0,12.0,64,0.00,,,0.00,Wunderground v.1.15,2013-11-13 16:51:00,
2013-11-13 11:57:00,30.3,19.6,30.62,WSW,244,10.0,14.0,64,0.00,,,0.00,Wunderground v.1.15,2013-11-13 16:57:00,
2013-11-13 12:02:00,30.6,19.1,30.61,SW,229,10.0,13.0,62,0.00,,,0.00,Wunderground v.1.15,2013-11-13 17:02:00,
2013-11-13 12:08:00,30.8,19.7,30.61,SSW,207,11.0,14.0,63,0.00,,,0.00,Wunderground v.1.15,2013-11-13 17:08:00,
2013-11-13 12:14:00,31.0,19.5,30.61,SW,235,10.0,12.0,62,0.00,,,0.00,Wunderground v.1.15,2013-11-13 17:14:00,
2013-11-13 12:20:00,31.4,19.1,30.60,WSW,245,10.0,12.0,60,0.00,,,0.00,Wunderground v.1.15,2013-11-13 17:20:00,
2013-11-13 12:26:00,31.4,19.1,30.60,SW,236,10.0,13.0,60,0.00,,,0.00,Wunderground v.1.15,2013-11-13 17:26:00,
2013-11-13 12:32:00,31.6,20.4,30.60,WSW,250,10.0,10.0,63,0.00,,,0.00,Wunderground v.1.15,2013-11-13 17:32:00,
2013-11-13 12:38:00,32.2,19.1,30.59,SSW,211,9.0,14.0,58,0.00,,,0.00,Wunderground v.1.15,2013-11-13 17:38:00,
2013-11-13 12:44:00,32.3,19.6,30.59,SW,228,9.0,13.0,59,0.00,,,0.00,Wunderground v.1.15,2013-11-13 17:44:00,
2013-11-13 12:50:00,32.9,20.5,30.59,WSW,240,7.0,12.0,60,0.00,,,0.00,Wunderground v.1.15,2013-11-13 17:50:00,
2013-11-13 12:56:00,33.5,20.7,30.58,WSW,238,7.0,12.0,59,0.00,,,0.00,Wunderground v.1.15,2013-11-13 17:56:00,
2013-11-13 13:02:00,33.5,19.9,30.58,SW,226,8.0,9.0,57,0.00,,,0.00,Wunderground v.1.15,2013-11-13 18:02:00,
2013-11-13 13:08:00,33.8,21.4,30.58,South,176,8.0,11.0,60,0.00,,,0.00,Wunderground v.1.15,2013-11-13 18:08:00,
2013-11-13 13:13:00,33.6,20.8,30.57,SW,226,8.0,12.0,59,0.00,,,0.00,Wunderground v.1.15,2013-11-13 18:13:00,
2013-11-13 13:18:00,34.0,21.2,30.57,SE,131,9.0,12.0,59,0.00,,,0.00,Wunderground v.1.15,2013-11-13 18:18:00,
2013-11-13 13:24:00,33.7,20.1,30.57,WSW,238,8.0,12.0,57,0.00,,,0.00,Wunderground v.1.15,2013-11-13 18:24:00,
2013-11-13 13:30:00,34.1,20.4,30.57,WSW,238,8.0,8.0,57,0.00,,,0.00,Wunderground v.1.15,2013-11-13 18:30:00,
2013-11-13 13:36:00,34.8,21.1,30.56,WSW,250,7.0,10.0,57,0.00,,,0.00,Wunderground v.1.15,2013-11-13 18:36:00,
2013-11-13 13:42:00,35.0,20.9,30.56,SW,217,7.0,9.0,56,0.00,,,0.00,Wunderground v.1.15,2013-11-13 18:42:00,
2013-11-13 13:48:00,34.6,21.3,30.55,SW,225,9.0,14.0,58,0.00,,,0.00,Wunderground v.1.15,2013-11-13 18:48:00,
2013-11-13 13:54:00,34.8,20.7,30.55,SSW,212,9.0,10.0,56,0.00,,,0.00,Wunderground v.1.15,2013-11-13 18:54:00,
2013-11-13 14:00:00,34.8,21.1,30.55,SSW,203,10.0,10.0,57,0.00,,,0.00,Wunderground v.1.15,2013-11-13 19:00:00,
2013-11-13 14:06:00,35.3,21.2,30.55,SW,221,9.0,13.0,56,0.00,,,0.00,Wunderground v.1.15,2013-11-13 19:06:00,
2013-11-13 14:12:00,35.3,20.7,30.54,WSW,247,9.0,11.0,55,0.00,,,0.00,Wunderground v.1.15,2013-11-13 19:12:00,
2013-11-13 14:17:00,35.5,18.7,30.54,SSW,197,9.0,12.0,50,0.00,,,0.00,Wunderground v.1.15,2013-11-13 19:17:00,
2013-11-13 14:23:00,35.4,18.6,30.54,SSW,194,11.0,14.0,50,0.00,,,0.00,Wunderground v.1.15,2013-11-13 19:23:00,
2013-11-13 14:29:00,35.7,19.8,30.53,SSW,207,10.0,14.0,52,0.00,,,0.00,Wunderground v.1.15,2013-11-13 19:29:00,
2013-11-13 14:35:00,36.0,20.5,30.53,SSW,197,9.0,13.0,53,0.00,,,0.00,Wunderground v.1.15,2013-11-13 19:35:00,
2013-11-13 14:41:00,36.1,20.6,30.53,SW,233,9.0,13.0,53,0.00,,,0.00,Wunderground v.1.15,2013-11-13 19:41:00,
2013-11-13 14:47:00,36.2,20.2,30.52,SW,217,10.0,13.0,52,0.00,,,0.00,Wunderground v.1.15,2013-11-13 19:47:00,
2013-11-13 14:53:00,36.4,20.9,30.52,SW,219,9.0,13.0,53,0.00,,,0.00,Wunderground v.1.15,2013-11-13 19:53:00,
2013-11-13 14:59:00,36.4,20.9,30.52,South,183,9.0,14.0,53,0.00,,,0.00,Wunderground v.1.15,2013-11-13 19:59:00,
2013-11-13 15:05:00,36.4,20.4,30.52,SSW,201,10.0,13.0,52,0.00,,,0.00,Wunderground v.1.15,2013-11-13 20:05:00,
2013-11-13 15:11:00,36.5,20.5,30.52,SW,236,10.0,12.0,52,0.00,,,0.00,Wunderground v.1.15,2013-11-13 20:11:00,
2013-11-13 15:17:00,36.6,20.6,30.51,South,184,10.0,12.0,52,0.00,,,0.00,Wunderground v.1.15,2013-11-13 20:17:00,
2013-11-13 15:22:00,36.6,20.2,30.51,SW,219,11.0,15.0,51,0.00,,,0.00,Wunderground v.1.15,2013-11-13 20:22:00,
2013-11-13 15:28:00,36.6,20.2,30.51,SW,233,11.0,15.0,51,0.00,,,0.00,Wunderground v.1.15,2013-11-13 20:28:00,
2013-11-13 15:34:00,36.9,20.9,30.51,SSW,212,10.0,12.0,52,0.00,,,0.00,Wunderground v.1.15,2013-11-13 20:34:00,
2013-11-13 15:40:00,37.2,21.6,30.50,SSW,199,9.0,9.0,53,0.00,,,0.00,Wunderground v.1.15,2013-11-13 20:40:00,
2013-11-13 15:46:00,37.2,21.2,30.50,SSW,205,9.0,17.0,52,0.00,,,0.00,Wunderground v.1.15,2013-11-13 20:46:00,
2013-11-13 15:52:00,36.9,21.3,30.50,SSW,198,10.0,11.0,53,0.00,,,0.00,Wunderground v.1.15,2013-11-13 20:52:00,
2013-11-13 15:58:00,36.8,20.8,30.50,SW,226,12.0,15.0,52,0.00,,,0.00,Wunderground v.1.15,2013-11-13 20:58:00,
2013-11-13 16:04:00,36.8,21.3,30.50,SW,228,11.0,11.0,53,0.00,,,0.00,Wunderground v.1.15,2013-11-13 21:04:00,
2013-11-13 16:10:00,36.8,20.3,30.49,SSW,207,11.0,11.0,51,0.00,,,0.00,Wunderground v.1.15,2013-11-13 21:10:00,
2013-11-13 16:15:00,36.7,20.3,30.50,SW,217,11.0,16.0,51,0.00,,,0.00,Wunderground v.1.15,2013-11-13 21:15:00,
2013-11-13 16:21:00,36.7,20.3,30.49,SW,221,10.0,14.0,51,0.00,,,0.00,Wunderground v.1.15,2013-11-13 21:21:00,
2013-11-13 16:27:00,36.6,21.1,30.49,SW,231,10.0,14.0,53,0.00,,,0.00,Wunderground v.1.15,2013-11-13 21:27:00,
2013-11-13 16:33:00,36.6,21.1,30.49,SW,217,9.0,10.0,53,0.00,,,0.00,Wunderground v.1.15,2013-11-13 21:33:00,
2013-11-13 16:39:00,36.4,20.4,30.49,SSW,210,10.0,13.0,52,0.00,,,0.00,Wunderground v.1.15,2013-11-13 21:39:00,
2013-11-13 16:45:00,36.3,20.3,30.48,SW,226,11.0,15.0,52,0.00,,,0.00,Wunderground v.1.15,2013-11-13 21:45:00,
2013-11-13 16:51:00,36.1,20.6,30.48,SW,221,9.0,9.0,53,0.00,,,0.00,Wunderground v.1.15,2013-11-13 21:51:00,
2013-11-13 16:57:00,35.9,20.9,30.48,SW,226,8.0,12.0,54,0.00,,,0.00,Wunderground v.1.15,2013-11-13 21:57:00,
2013-11-13 17:02:00,35.8,21.2,30.48,SW,228,8.0,10.0,55,0.00,,,0.00,Wunderground v.1.15,2013-11-13 22:02:00,
2013-11-13 17:08:00,35.5,21.3,30.47,SW,226,7.0,12.0,56,0.00,,,0.00,Wunderground v.1.15,2013-11-13 22:08:00,
2013-11-13 17:14:00,35.2,21.5,30.47,SSW,210,7.0,9.0,57,0.00,,,0.00,Wunderground v.1.15,2013-11-13 22:14:00,
2013-11-13 17:20:00,34.7,21.4,30.47,SSW,201,7.0,7.0,58,0.00,,,0.00,Wunderground v.1.15,2013-11-13 22:20:00,
2013-11-13 17:25:00,34.4,21.5,30.47,SSW,208,6.0,7.0,59,0.00,,,0.00,Wunderground v.1.15,2013-11-13 22:25:00,
2013-11-13 17:31:00,34.1,22.0,30.47,SSW,204,7.0,7.0,61,0.00,,,0.00,Wunderground v.1.15,2013-11-13 22:31:00,
2013-11-13 17:37:00,33.8,21.8,30.46,SW,232,7.0,9.0,61,0.00,,,0.00,Wunderground v.1.15,2013-11-13 22:37:00,
2013-11-13 17:43:00,33.7,21.7,30.46,SW,214,7.0,7.0,61,0.00,,,0.00,Wunderground v.1.15,2013-11-13 22:43:00,
2013-11-13 17:49:00,33.5,21.5,30.46,SW,214,6.0,9.0,61,0.00,,,0.00,Wunderground v.1.15,2013-11-13 22:49:00,
2013-11-13 17:55:00,33.4,21.4,30.46,SW,225,6.0,8.0,61,0.00,,,0.00,Wunderground v.1.15,2013-11-13 22:55:00,
2013-11-13 18:00:00,33.4,21.4,30.46,SSW,207,7.0,9.0,61,0.00,,,0.00,Wunderground v.1.15,2013-11-13 23:00:00,
2013-11-13 18:06:00,33.3,21.3,30.46,SW,214,7.0,11.0,61,0.00,,,0.00,Wunderground v.1.15,2013-11-13 23:06:00,
2013-11-13 18:12:00,33.1,21.5,30.46,South,184,6.0,8.0,62,0.00,,,0.00,Wunderground v.1.15,2013-11-13 23:12:00,
2013-11-13 18:18:00,32.9,21.3,30.46,SW,218,6.0,10.0,62,0.00,,,0.00,Wunderground v.1.15,2013-11-13 23:18:00,
2013-11-13 18:24:00,32.8,21.2,30.45,SW,216,6.0,9.0,62,0.00,,,0.00,Wunderground v.1.15,2013-11-13 23:24:00,
2013-11-13 18:29:00,32.7,21.5,30.45,SSW,205,7.0,9.0,63,0.00,,,0.00,Wunderground v.1.15,2013-11-13 23:29:00,
2013-11-13 18:35:00,32.5,21.3,30.45,SSW,212,7.0,10.0,63,0.00,,,0.00,Wunderground v.1.15,2013-11-13 23:35:00,
2013-11-13 18:41:00,32.4,21.6,30.45,SSW,212,7.0,7.0,64,0.00,,,0.00,Wunderground v.1.15,2013-11-13 23:41:00,
2013-11-13 18:47:00,32.1,21.7,30.45,SSW,207,7.0,8.0,65,0.00,,,0.00,Wunderground v.1.15,2013-11-13 23:47:00,
2013-11-13 18:53:00,32.0,21.6,30.45,SSW,195,7.0,9.0,65,0.00,,,0.00,Wunderground v.1.15,2013-11-13 23:53:00,
2013-11-13 18:59:00,32.0,21.6,30.45,SSW,199,7.0,10.0,65,0.00,,,0.00,Wunderground v.1.15,2013-11-13 23:59:00,
2013-11-13 19:05:00,31.7,21.6,30.45,SSW,206,6.0,7.0,66,0.00,,,0.00,Wunderground v.1.15,2013-11-14 00:05:00,
2013-11-13 19:10:00,31.6,21.2,30.45,SSW,194,6.0,6.0,65,0.00,,,0.00,Wunderground v.1.15,2013-11-14 00:10:00,
2013-11-13 19:16:00,31.4,21.3,30.45,SW,218,6.0,7.0,66,0.00,,,0.00,Wunderground v.1.15,2013-11-14 00:16:00,
2013-11-13 19:22:00,31.2,21.2,30.44,SSW,212,5.0,6.0,66,0.00,,,0.00,Wunderground v.1.15,2013-11-14 00:22:00,
2013-11-13 19:28:00,31.1,21.1,30.44,South,190,5.0,7.0,66,0.00,,,0.00,Wunderground v.1.15,2013-11-14 00:28:00,
2013-11-13 19:34:00,31.0,21.3,30.44,SSW,194,6.0,6.0,67,0.00,,,0.00,Wunderground v.1.15,2013-11-14 00:34:00,
2013-11-13 19:40:00,31.0,21.3,30.44,WSW,248,7.0,8.0,67,0.00,,,0.00,Wunderground v.1.15,2013-11-14 00:40:00,
2013-11-13 19:46:00,31.0,21.3,30.43,SSW,212,7.0,9.0,67,0.00,,,0.00,Wunderground v.1.15,2013-11-14 00:46:00,
2013-11-13 19:52:00,30.8,21.1,30.43,SSW,212,6.0,9.0,67,0.00,,,0.00,Wunderground v.1.15,2013-11-14 00:52:00,
2013-11-13 19:58:00,30.8,21.1,30.43,SSW,210,6.0,9.0,67,0.00,,,0.00,Wunderground v.1.15,2013-11-14 00:58:00,
2013-11-13 20:04:00,30.9,20.9,30.43,SW,226,6.0,8.0,66,0.00,,,0.00,Wunderground v.1.15,2013-11-14 01:04:00,
2013-11-13 20:09:00,31.0,20.6,30.42,SW,226,7.0,11.0,65,0.00,,,0.00,Wunderground v.1.15,2013-11-14 01:09:00,
2013-11-13 20:15:00,31.1,20.7,30.42,SSW,199,8.0,11.0,65,0.00,,,0.00,Wunderground v.1.15,2013-11-14 01:15:00,
2013-11-13 20:21:00,31.3,20.9,30.42,SSW,203,9.0,10.0,65,0.00,,,0.00,Wunderground v.1.15,2013-11-14 01:21:00,
2013-11-13 20:27:00,31.3,20.5,30.42,SSW,212,10.0,11.0,64,0.00,,,0.00,Wunderground v.1.15,2013-11-14 01:27:00,
2013-11-13 20:33:00,31.2,20.4,30.42,SW,215,9.0,10.0,64,0.00,,,0.00,Wunderground v.1.15,2013-11-14 01:33:00,
2013-11-13 20:39:00,31.3,20.5,30.42,SW,218,9.0,14.0,64,0.00,,,0.00,Wunderground v.1.15,2013-11-14 01:39:00,
2013-11-13 20:45:00,31.3,20.5,30.42,SSW,204,9.0,15.0,64,0.00,,,0.00,Wunderground v.1.15,2013-11-14 01:45:00,
2013-11-13 20:51:00,31.3,20.5,30.41,SSW,210,10.0,12.0,64,0.00,,,0.00,Wunderground v.1.15,2013-11-14 01:51:00,
2013-11-13 20:57:00,31.2,20.8,30.41,SW,225,10.0,15.0,65,0.00,,,0.00,Wunderground v.1.15,2013-11-14 01:57:00,
2013-11-13 21:03:00,31.2,20.4,30.41,SSW,209,10.0,15.0,64,0.00,,,0.00,Wunderground v.1.15,2013-11-14 02:03:00,
2013-11-13 21:08:00,31.2,20.8,30.41,SSW,204,10.0,15.0,65,0.00,,,0.00,Wunderground v.1.15,2013-11-14 02:08:00,
2013-11-13 21:13:00,31.2,20.8,30.41,SSW,208,9.0,10.0,65,0.00,,,0.00,Wunderground v.1.15,2013-11-14 02:13:00,
2013-11-13 21:19:00,31.0,20.6,30.41,SSW,199,9.0,12.0,65,0.00,,,0.00,Wunderground v.1.15,2013-11-14 02:19:00,
2013-11-13 21:25:00,31.0,20.6,30.41,SSW,203,9.0,11.0,65,0.00,,,0.00,Wunderground v.1.15,2013-11-14 02:25:00,
2013-11-13 21:31:00,31.0,20.6,30.41,SSW,201,9.0,9.0,65,0.00,,,0.00,Wunderground v.1.15,2013-11-14 02:31:00,
2013-11-13 21:37:00,31.0,20.6,30.41,SSW,207,10.0,11.0,65,0.00,,,0.00,Wunderground v.1.15,2013-11-14 02:37:00,
2013-11-13 21:43:00,31.0,20.6,30.40,SW,214,10.0,11.0,65,0.00,,,0.00,Wunderground v.1.15,2013-11-14 02:43:00,
2013-11-13 21:49:00,30.9,20.9,30.40,SSW,212,9.0,11.0,66,0.00,,,0.00,Wunderground v.1.15,2013-11-14 02:49:00,
2013-11-13 21:55:00,30.8,20.8,30.40,SW,221,9.0,13.0,66,0.00,,,0.00,Wunderground v.1.15,2013-11-14 02:55:00,
2013-11-13 22:00:00,30.8,20.8,30.39,SSW,203,9.0,9.0,66,0.00,,,0.00,Wunderground v.1.15,2013-11-14 03:00:00,
2013-11-13 22:06:00,30.7,20.7,30.39,SW,228,9.0,13.0,66,0.00,,,0.00,Wunderground v.1.15,2013-11-14 03:06:00,
2013-11-13 22:12:00,30.8,20.4,30.39,SSW,195,10.0,11.0,65,0.00,,,0.00,Wunderground v.1.15,2013-11-14 03:12:00,
2013-11-13 22:17:00,30.9,20.5,30.39,SSW,203,10.0,11.0,65,0.00,,,0.00,Wunderground v.1.15,2013-11-14 03:17:00,
2013-11-13 22:23:00,30.9,20.5,30.39,SW,217,10.0,11.0,65,0.00,,,0.00,Wunderground v.1.15,2013-11-14 03:23:00,
2013-11-13 22:29:00,30.9,20.5,30.39,SW,228,10.0,14.0,65,0.00,,,0.00,Wunderground v.1.15,2013-11-14 03:29:00,
2013-11-13 22:35:00,30.9,20.5,30.39,SSW,204,10.0,14.0,65,0.00,,,0.00,Wunderground v.1.15,2013-11-14 03:35:00,
2013-11-13 22:41:00,30.9,20.5,30.39,SW,218,10.0,10.0,65,0.00,,,0.00,Wunderground v.1.15,2013-11-14 03:41:00,
2013-11-13 22:46:00,30.8,20.4,30.39,SW,214,10.0,12.0,65,0.00,,,0.00,Wunderground v.1.15,2013-11-14 03:46:00,
2013-11-13 22:52:00,30.8,20.4,30.38,SW,219,10.0,14.0,65,0.00,,,0.00,Wunderground v.1.15,2013-11-14 03:52:00,
2013-11-13 22:58:00,30.8,20.4,30.38,SW,225,10.0,14.0,65,0.00,,,0.00,Wunderground v.1.15,2013-11-14 03:58:00,
2013-11-13 23:04:00,30.7,20.7,30.38,SSW,207,9.0,9.0,66,0.00,,,0.00,Wunderground v.1.15,2013-11-14 04:04:00,
2013-11-13 23:10:00,30.6,20.6,30.38,SSW,204,9.0,11.0,66,0.00,,,0.00,Wunderground v.1.15,2013-11-14 04:10:00,
2013-11-13 23:15:00,30.6,20.9,30.38,SSW,208,10.0,13.0,67,0.00,,,0.00,Wunderground v.1.15,2013-11-14 04:15:00,
2013-11-13 23:20:00,30.4,20.7,30.37,SSW,194,9.0,9.0,67,0.00,,,0.00,Wunderground v.1.15,2013-11-14 04:20:00,
2013-11-13 23:26:00,30.4,20.7,30.38,SW,233,8.0,12.0,67,0.00,,,0.00,Wunderground v.1.15,2013-11-14 04:26:00,
2013-11-13 23:32:00,30.3,21.0,30.37,SW,217,8.0,12.0,68,0.00,,,0.00,Wunderground v.1.15,2013-11-14 04:32:00,
2013-11-13 23:38:00,30.2,20.9,30.37,SSW,207,8.0,12.0,68,0.00,,,0.00,Wunderground v.1.15,2013-11-14 04:38:00,
2013-11-13 23:44:00,30.2,20.9,30.37,South,177,9.0,14.0,68,0.00,,,0.00,Wunderground v.1.15,2013-11-14 04:44:00,
2013-11-13 23:50:00,30.2,21.2,30.37,SW,227,9.0,10.0,69,0.00,,,0.00,Wunderground v.1.15,2013-11-14 04:50:00,
2013-11-13 23:56:00,30.1,21.2,30.36,SSW,200,8.0,11.0,69,0.00,,,0.00,Wunderground v.1.15,2013-11-14 04:56:00,